Location: Gaast
(52.9002°N, 5.8891°E)
Time: 00:08:27
(UTC+00:00)

USA 281 - Pass Details

Date: 18 November 2025
Orbit: 1079 x 1080 km, 106.0° (Epoch: 27 November)

Event Time Altitude Azimuth Distance (km) Brightness Sun altitude
Exits shadow 18:11:30 42° 103° (ESE) 1,506 3.5 -22.8°
Maximum altitude 18:13:26 56° 52° (NE) 1,274 3.3 -23.1°
Drops below altitude 10° 18:19:50 10° 337° (NNW) 2,933 5.7 -24.1°
Sets 18:22:24 0° 333° (NNW) 3,892 6.5 -24.5°
